Voltar ao catálogo

STARLINK-3621

AtivoComunicaçõesVLEO
NORAD 51769·PAYLOAD·🇺🇸 United States

Lançado Feb 25, 2022 de Vandenberg Space Force Base

Loading…

Próximas Passagens (próximas 24 horas)

TLE

AtualizadoSource: CelesTrak SupGP

Época: Sep 14, 2026, 20:52 UTC

1 51769C 22017B   26257.86993056  .00019770  00000+0  11721-2 0  2572
2 51769  53.2154 208.6792 0001599  79.2474 214.9781 15.10866410    16

Acompanhe STARLINK-3621 em tempo real com AllMySat

Download on the App Store